Location: *
(33.8649°S, 62.1526°E)
Time: 12:54:49
(UTC+00:00)

SL-16 R/B - Pass Details

Date: 17 January 2021
Orbit: 985 x 1007 km, 99.5° (Epoch: 02 March)

Event Time Altitude Azimuth Distance (km) Brightness Sun altitude
Rises 23:36:40 0° 181° (S) 3,765 6.1 -15.3°
Reaches altitude 10° 23:39:35 10° 193° (SSW) 2,809 5.2 -14.9°
Maximum altitude 23:44:35 25° 245° (WSW) 1,905 3.8 -14.0°
Enters shadow 23:48:01 16° 287° (WNW) 2,367 3.9 -13.5°
